Location: Torrington
(42.0650°N, 104.1810°W)
Time: 01:21:21
(UTC-06:00)

Daily predictions for brighter satellites

Satellite Brightness Start Highest point End
(mag) Time Altitude Azimuth Time Altitude Azimuth Time Altitude Azimuth
Cosmos 2278 Rocket 3.9 00:04:48 10° NNW 00:07:42 29° N 00:07:42 29° N
ATLAS 3B R/B 3.9 00:25:38 36° NE 00:25:38 36° NE 00:29:44 10° NE
Cosmos 2360 Rocket 4.4 00:37:50 19° NW 00:37:50 19° NW 00:41:47 10° N
Cosmos 2219 Rocket 4.1 00:58:57 26° N 00:58:57 26° N 01:01:31 10° NNE
SL-16 R/B 4.1 01:19:50 25° NNE 01:19:50 25° NNE 01:22:08 10° NNE
Cosmos 2237 Rocket 4.0 01:21:30 27° N 01:21:30 27° N 01:24:16 10° NNE
CZ-4C R/B 4.2 01:26:08 24° NE 01:26:08 24° NE 01:28:26 10° NE
Cosmos 2333 Rocket 4.0 01:27:35 27° NNW 01:27:35 27° NNW 01:30:38 10° N
ATLAS 3B R/B 4.0 02:12:51 33° NW 02:13:37 34° NW 02:20:13 10° NNE
CZ-3A R/B 4.0 02:17:27 49° NW 02:17:36 49° NW 02:22:04 10° NE
Resurs 1-4 Rocket 4.5 02:22:00 10° ENE 02:24:48 14° E 02:24:59 14° E
Cosmos 2369 Rocket 3.3 02:30:13 10° NNW 02:33:56 39° N 02:33:56 39° N
Cosmos 839 Rocket 4.4 02:29:53 10° NNW 02:38:06 78° NE 02:38:06 78° NE
Cosmos 1943 Rocket 3.7 02:41:47 10° N 02:46:52 32° NE 02:50:11 18° ESE
SL-16 R/B 4.1 03:01:43 19° NW 03:01:43 19° NW 03:05:11 10° N
S3M 4.4 03:06:56 52° NW 03:06:56 52° NW 03:12:06 10° N
USA 234 3.9 03:02:30 10° ENE 03:08:36 40° SE 03:08:50 40° SE
CZ-4C R/B 3.7 03:11:18 26° NW 03:11:38 26° NW 03:16:47 10° NNE
IRS-1D 4.4 03:06:53 10° NNE 03:11:54 45° E 03:11:54 45° E
Spot 4 Rocket 4.5 03:07:45 10° NNE 03:12:07 58° NE 03:12:07 58° NE
ARIANE 5 R/B 3.1 03:10:17 10° NNE 03:15:13 51° E 03:15:13 51° E
Cosmos 724 4.3 03:16:02 76° N 03:16:02 76° N 03:21:38 10° NNE
Cosmos 1733 Rocket 4.3 03:15:05 10° N 03:18:46 39° ENE 03:18:46 39° ENE
ATLAS 5 CENTAUR R/B 2.4 03:20:31 57° NE 03:20:31 57° NE 03:24:46 10° NE
IRS-1C 4.4 03:16:23 10° N 03:20:51 60° NNW 03:20:51 60° NNW
SL-16 R/B 2.6 03:26:22 47° SE 03:28:12 75° ENE 03:34:24 10° N
NOSS 3-2 (A) 4.2 03:27:39 39° WNW 03:28:16 40° NW 03:34:34 10° NNE
Cosmos 1709 Rocket 3.9 03:23:08 10° N 03:29:31 86° E 03:30:26 67° SSE
ADEOS 3.7 03:29:36 10° N 03:34:16 65° NNW 03:34:16 65° NNW
CENTAUR R/B 2.6 03:34:26 55° SSE 03:35:23 62° ESE 03:42:06 10° NE
CZ-2D R/B 2.1 03:36:23 10° NNE 03:41:39 69° ESE 03:42:14 63° SE
NOSS 3-2 (C) 4.3 03:46:07 34° WNW 03:47:21 37° NW 03:53:36 10° NNE
IRAS Rocket 4.3 03:43:56 10° N 03:49:26 57° WNW 03:49:35 57° WNW
SL-27 R/B 3.6 03:53:46 45° NE 03:53:46 45° NE 03:56:31 10° NNE
Cosmos 2074 Rocket 4.5 03:46:55 10° N 03:53:03 58° E 03:59:12 10° SSE
EO 1 Del DPAF 3.7 03:55:10 62° NNE 03:55:10 62° NNE 03:58:38 10° N
UNKNOWN OBJECT B 3.2 03:54:12 10° NNE 03:57:28 58° ENE 03:57:28 58° ENE
Cosmos 2184 Rocket 4.4 03:54:18 10° N 04:00:40 65° E 04:06:58 10° SSE
Cosmos 1862 4.0 04:00:24 10° N 04:04:18 51° E 04:05:47 32° SE
Resurs 1-4 Rocket 2.0 03:59:53 10° N 04:05:09 72° WNW 04:06:03 58° SW
Okean O Rocket 2.8 04:03:14 10° NNE 04:07:27 40° E 04:09:52 22° SSE
Cosmos 1869 3.7 04:09:31 53° NW 04:09:31 53° NW 04:12:49 10° N
Cosmos 1943 4.3 04:09:53 27° WNW 04:10:32 28° NW 04:15:22 10° N
UNK 4.4 04:14:42 39° WNW 04:14:42 39° WNW 04:18:09 10° NNW
Cosmos 1455 3.5 04:18:36 29° NW 04:18:36 29° NW 04:21:10 10° N
Cosmos 2369 Rocket 4.3 04:15:19 10° NW 04:15:39 11° WNW 04:15:39 11° WNW
Cosmos 1408 2.7 04:18:16 10° N 04:22:03 78° E 04:23:14 42° SSE
COSMOS 2406 3.2 04:19:49 39° SSW 04:22:05 86° WNW 04:27:53 10° NNE
Sich 1 Rocket 3.4 04:18:40 10° NNW 04:23:03 73° W 04:24:18 45° SSW
Cosmos 1933 3.2 04:27:34 49° SSW 04:28:36 82° W 04:32:44 10° N
MOZ.5/SAFIR/RUBIN 5/SL-8 3.8 04:24:39 10° SSE 04:29:16 81° ENE 04:33:56 10° N
CZ-4B R/B 3.7 04:24:19 10° NNE 04:29:31 56° E 04:34:27 11° S
Cosmos 1943 Rocket 2.6 04:25:26 10° NW 04:30:39 39° WSW 04:31:30 36° SW
Cosmos 2285 Rocket 3.9 04:27:54 10° NNW 04:34:17 70° WSW 04:40:36 10° S
Cosmos 1862 Rocket 4.2 04:34:21 35° W 04:34:30 35° WNW 04:38:34 10° N
IRS-1C Rocket 4.1 04:29:57 10° NNE 04:35:15 83° ESE 04:39:06 19° SSW
Okean 1-7 3.7 04:31:49 14° S 04:35:24 55° E 04:39:40 10° NNE
ERS-2 4.1 04:33:06 10° NNW 04:34:55 17° NW 04:34:55 17° NW
Cosmos 407 Rocket 4.0 04:31:49 17° S 04:35:44 59° ESE 04:40:56 10° NNE
GPS 2-05 Rocket1 4.5 04:38:31 22° SSE 04:38:31 22° SSE 04:40:58 10° ESE
SeaSat 1 2.4 04:33:53 10° SSE 04:38:48 87° ENE 04:43:46 10° NNW
CZ-4B R/B 3.1 04:37:59 10° NNE 04:41:40 62° E 04:44:28 17° S
Atlas Centaur 2 3.4 04:42:14 15° S 04:42:56 15° SSE 04:45:35 10° SE
Cosmos 1825 2.4 04:45:31 10° NNW 04:49:09 44° W 04:50:12 35° SW
USA 234 3.4 04:45:19 10° NE 04:51:46 63° NW 04:56:10 22° WSW
ARIANE 5 R/B 3.9 04:50:15 10° NNW 04:54:08 22° WNW 04:55:34 19° W
Abrixas rocket 2.2 04:52:32 23° WNW 04:54:31 83° NNE 04:57:51 10° ESE
PSLV R/B 3.9 04:51:00 10° N 04:54:43 54° WNW 04:56:31 27° SW
Okean 2 Rocket 3.0 04:51:03 10° N 04:55:35 84° W 05:00:05 10° S
Cosmos 1656 Rocket 3.7 04:50:26 10° NW 04:55:39 50° WSW 05:00:51 10° S
Aureole 3 Rocket 3.6 04:52:53 10° SSW 04:59:28 71° W 05:04:07 10° N
Cosmos 389 Rocket 4.3 05:00:38 17° WNW 05:00:38 17° WNW 05:02:47 10° NNW
PSLV R/B 4.1 05:01:48 30° SW 05:02:28 32° SSW 05:05:35 10° SE
ATLAS 5 CENTAUR R/B 3.7 05:02:05 13° WNW 05:04:55 20° NW 05:08:52 10° NNE
BREEZE-M DEB (TANK) 4.4 05:01:37 15° WNW 05:05:04 47° SSW 05:15:36 10° SE
Cosmos 1782 Rocket 3.8 05:04:34 10° NNW 05:08:44 47° W 05:12:53 10° SSW
AVUM R/B 3.4 05:08:20 26° SW 05:09:56 54° WNW 05:13:15 10° NNE
ADEOS Rocket 3.8 05:03:36 10° NNE 05:11:25 77° ESE 05:19:05 10° S
Nadezhda 1 Rocket 4.3 05:06:02 12° SSW 05:11:38 49° WNW 05:17:48 10° N
SL-16 R/B 3.8 05:11:28 17° WSW 05:12:26 17° W 05:16:20 10° NW
PAYLOAD B 4.4 05:10:23 10° N 05:15:47 56° WNW 05:21:08 10° SSW
COSMOS 2487 3.0 05:18:07 17° SW 05:20:32 42° WNW 05:24:01 10° N
CZ-2D R/B 3.8 05:17:57 10° NNW 05:21:08 16° WNW 05:23:34 12° W
Cosmos 1190 Rocket 4.5 05:20:30 14° SW 05:24:38 42° WNW 05:29:35 10° N
CENTAUR R/B 3.7 05:21:38 13° W 05:26:32 32° NW 05:32:47 10° NNE
Meteor 1-25 Rocket 4.2 05:23:11 10° N 05:28:47 89° W 05:34:22 10° S
USA 129 1.4 05:31:08 26° SW 05:31:31 33° W 05:32:59 10° NNW
Cosmos 2181 Rocket 4.1 05:25:57 10° SSW 05:32:23 76° W 05:38:47 10° N
Meteor 1-20 Rocket 4.4 05:27:21 10° N 05:33:06 85° E 05:38:54 10° S
BREEZE-M DEB (TANK) 4.5 05:33:34 10° WNW 05:36:20 16° NNW 05:38:16 10° NNE
Cosmos 1295 Rocket 4.4 05:31:03 10° N 05:37:11 78° W 05:43:21 10° S
Cosmos 1697 Rocket 4.4 05:32:33 10° N 05:37:47 38° ENE 05:42:58 10° SE
Cosmos 1356 3.6 05:35:24 10° N 05:38:57 83° E 05:42:29 10° S
Thor Agena Rocket 4.0 05:35:13 10° SSW 05:40:00 38° W 05:44:52 10° NNW
Cosmos 1023 Rocket 4.5 05:36:27 10° SSW 05:41:32 89° ESE 05:46:40 10° NNE
Cosmos 1954 Rocket 4.1 05:37:19 10° SSW 05:42:26 62° WNW 05:47:37 10° NNE
Okean O Rocket 3.1 05:40:17 10° NNW 05:43:34 20° WNW 05:46:50 10° WSW
Resurs 1-4 Rocket 4.2 05:43:43 10° NW 05:44:02 10° NW 05:44:21 10° WNW
Meteor PRIRODA 3.7 05:40:31 10° N 05:44:15 67° WNW 05:48:00 10° SSW
Cosmos 1400 Rocket 3.3 05:40:36 10° N 05:44:28 62° ENE 05:48:18 10° SSE
CZ-4B R/B 4.3 05:43:57 10° NNE 05:48:29 79° ESE 05:52:54 10° S
Cosmos 1315 Rocket 4.4 05:47:39 10° N 05:51:39 44° ENE 05:55:35 10° SSE
Cosmos 2278 3.7 05:46:06 10° NNW 05:51:47 67° WSW 05:57:25 10° S
ADEOS II 2.2 05:48:33 10° N 05:53:42 57° WNW 05:58:50 10° SSW
Okean-O 3.0 05:50:33 10° N 05:54:46 44° WNW 05:58:59 10° SW
Meteor 2-10 Rocket 4.0 05:50:20 10° SSW 05:55:58 52° WNW 06:01:30 10° N
USA 229 DEB 4.4 05:51:42 10° SSW 05:58:27 59° ESE 06:05:18 10° NE
USA 229 4.4 05:51:49 10° SSW 05:58:33 59° ESE 06:05:23 10° NE
